Regional Weather Roundup
Issued by NWS Newport/Morehead, NC

Home | Current Version | Previous Version | Text Only | Print | Product List | Glossary On
Versions: 1 2 3 4 5 6 7 8 9 10 11 12 13 14 15 16 17 18 19 20 21 22 23 24 25 26 27 28 29 30 31 32 33 34 35 36 37 38 39 40 41 42 43 44 45 46 47 48 49 50
000
ASUS42 KMHX 220614
RWRMHX
WEATHER ROUNDUP FOR EASTERN NORTH CAROLINA
NATIONAL WEATHER SERVICE NEWPORT/MOREHEAD CITY NC
200 AM EDT TUE AUG 22 2017

NOTE: "FAIR" INDICATES FEW OR NO CLOUDS BELOW 12,000 FEET
WITH NO SIGNIFICANT WEATHER AND/OR OBSTRUCTIONS TO VISIBILITY

NCZ015>017-031-032-045>047-102-103-220700-
NORTH COAST

CITY           SKY/WX    TMP DP  RH WIND       PRES   REMARKS
EDENTON        CLEAR     80  76  89 CALM      30.17S
ELIZABETH CITY CLEAR     75  75 100 S3        30.16S
KITTY HAWK     CLEAR     76  73  91 CALM      30.16R
MANTEO         CLEAR     80  75  85 SW8       30.17S

$$

NCZ045>047-081-094-103-104-220700-
CENTRAL COAST

CITY           SKY/WX    TMP DP  RH WIND       PRES   REMARKS
FRISCO         CLEAR     75  74  96 CALM      30.16F

$$

NCZ095-097-098-100-101-220700-
SOUTHERN COAST

CITY           SKY/WX    TMP DP  RH WIND       PRES   REMARKS
BEAUFORT       CLEAR     77  77 100 CALM      30.16F
CEDAR ISLAND   NOT AVBL
JACKSONVILLE   CLEAR     76  76 100 CALM      30.15F
PINEY ISLAND   CLEAR    N/A N/A N/A CALM      30.16F
WILMINGTON     PTCLDY    77  76  96 CALM      30.15F


$$

NCZ011>013-027>030-043-044-078>080-089-090>093-098-220700-
COASTAL PLAIN

CITY           SKY/WX    TMP DP  RH WIND       PRES   REMARKS
AHOSKIE          N/A     72  72 100 CALM      30.16S FOG
CLINTON        CLEAR     74  74 100 CALM      30.16F
ELIZABETHTOWN  NOT AVBL
GOLDSBORO      CLEAR     76  73  90 SW2       30.16F
GREENVILLE     CLEAR     73  73 100 CALM      30.17S FOG
HAVELOCK       CLEAR     76  74  93 CALM      30.17F
KENANSVILLE    CLEAR     72  70  94 CALM      30.17F
KINSTON        CLEAR     73  72  98 CALM      30.17S
NEW BERN       FOG       73  73 100 CALM      30.17F VSB 1/2
RICHLANDS      MOCLDY    74  73  97 CALM      30.17S
ROCKY MOUNT    CLEAR     71  71 100 CALM      30.16S FOG
WASHINGTON     CLEAR     75  73  96 CALM      30.17S
WHITEVILLE     CLOUDY    76  75  97 CALM      30.16S

$$

AMZ130-135-150-152-154-156-158-170-250-252-270-ANZ085-086-088-633-658-670-220700-
MARINE OBSERVATIONS

STATION/POSITION TIME  TEMP    WIND        PRES    WAVE   SWELL
                       AIR SEA DIR/SP/G            HT/PER HT/PER
                 (UTC) (F)     (DEG/KT/KT) (MB)    (FT/S) (FT/S)
CHESAPEAKE LIGHT NOT AVBL
64 E VA BEACH    0550   78 79  190/  4/  6 1021.8    2/ 8   2/ 8
DUCK             0542   79 78  160/  5/  6 1021.0
2 E DUCK         0600      81                N/A     2/11   2/11
OREGON INLET     0542   78 80  160/  3/  5 1021.4
13E OREGON INLT  0548      80                N/A     2/ 8   2/ 8
HATTERAS CG      0542   80 82  150/  2/  2 1021.4
DIAMOND BUOY     0550   83 84  260/  6/  8 1021.3    2/ 8   2/ 8
CAPE LOOKOUT     0600   81      CALM  /  1 1020.9
BEAUFORT LAB     0542   81 81  240/  1/  5 1020.6
30 SE NEW RVR IN 0508   80 83  200/  2/  4 1021.7
30 SE NEW RVR IN 0543      83                N/A     3/ 8   2/11
27 SE WRIGHTSVLE 0508   82 84  140/  6/  8 1021.4
5 SE WRIGHTSVLE  0508   83 83  210/  6/ 10 1021.1
225 S CAPE HAT   0550   82 84  140/  6/  8 1021.4    4/11   3/11
41 SE CHARLESTON 0600   83 85  190/  8/ 10 1020.4

$$



USA.gov is the U.S. government's official web portal to all federal, state and local government web resources and services.